Airports & Charts

SJU | TJSJ – Luis Munoz Marin International Airport

San Juan, Puerto RicoAirspace Class: Class C

TJSJ 171856Z 08014KT 10SM FEW035 FEW065 29/22 A2995 RMK AO2 SLP140 T02940222

 

Flight Planner at SkyVector.com

Click Chart to Enlarge (Opens in Same Window)

 

AIRAC Cycle: 1501

AD – Airport Diagram
AIRPORT DIAGRAM  
SIDs – Standard Instrument Departures
ACONY ONE (RNAV) RNAV Turbojet  
CRSTL ONE RNAV  
GANBO ONE (RNAV) RNAV Turbojet  
GLADA TWO (RNAV) RNAV Turbojet  
HAMAR ONE (RNAV) RNAV Prop/Turboprop  
JAAWS NINE   
JETSS ONE   
SNGRA ONE (RNAV) RNAV Prop/Turboprop  
VERMO FIVE   
NOTE: Special Take-Off Minimums/Departure Procedures apply   
STARs – Standard Terminal Arrivals
BEANO THREE (RNAV) RNAV Turbojet  
CHAKA FOUR (RNAV) RNAV Prop/Turboprop  
JOSHE THREE (RNAV) (Cont.) RNAV Turbojet  
SAALR TWO (RNAV) RNAV Turbojet  
TROCO THREE (RNAV) RNAV Turbojet  
IAPs – Instrument Approach Procedures
ILS OR LOC RWY 08   
ILS OR LOC RWY 10   
RNAV (GPS) RWY 08 RNAV  
RNAV (GPS) RWY 10 RNAV    
RNAV (GPS) RWY 26 RNAV    
VOR OR TACAN RWY 08   
VOR OR TACAN RWY 10   
VOR OR TACAN RWY 26   
NDB RWY 08   
BRIDGE VISUAL RWY 10   
LAGOON VISUAL RWY 08   
NOTE: Special Alternate Minimums apply   

 

 

 

SXM | TNCM – Princess Juliana International Airport

Philipsburg, St. MaartenAirspace Class: Class C

TNCM 171900Z 09012KT 050V120 9999 FEW022 29/21 Q1014 NOSIG RMK A2996

 

Flight Planner at SkyVector.com

Click Chart to Enlarge (Opens in Same Window)

 

Chart Packet
SXM Chart Packet  

 

 

STT | TIST – Cyril E King Airport

Charlotte Amalie West, St. Thomas, U.S.V.I.Airspace Class: Class C

TIST 171853Z 13012KT 10SM FEW030 29/22 A2996 RMK AO2 SLP145 T02940222

 

Flight Planner at SkyVector.com

 Click Chart to Enlarge (Opens in Same Window)

 

AIRAC Cycle: 1501

AD – Airport Diagram
AIRPORT DIAGRAM  
SIDs – Standard Instrument Departures
PALCO SIX   
NOTE: Special Take-Off Minimums/Departure Procedures apply   
IAPs – Instrument Approach Procedures
ILS RWY 10   
RNAV (GPS) RWY 10 RNAV  
VOR-A   
NOTE: Special Alternate Minimums apply   

 

 

STX | TISX – Henry E Rohlsen Airport

Christiansted, St. Croix, U.S.V.I.Airspace Class: Class D

TISX 171853Z 09016KT 10SM FEW025 SCT070 30/23 A2995 RMK AO2 SLP142 T03000233

 

Flight Planner at SkyVector.com

Click Chart to Enlarge (Opens in Same Window)

 

AIRAC Cycle: 1501

AD – Airport Diagram
AIRPORT DIAGRAM  
SIDs – Standard Instrument Departures
HAMILTON SEVEN Prop/Turboprop  
SNOOZ THREE Prop/Turboprop  
NOTE: Special Take-Off Minimums/Departure Procedures apply   
IAPs – Instrument Approach Procedures
ILS OR LOC RWY 10   
RNAV (GPS) RWY 10 RNAV   
RNAV (GPS) RWY 28 RNAV    
VOR RWY 28   
NOTE: Special Alternate Minimums apply   

 

 

BQN | TJBQ – Rafael Hernandez Airport

Aguadilla, Puerto RicoAirspace Class: Class D

TJBQ 171850Z 08013G19KT 10SM SCT085 29/ A2995

 

Flight Planner at SkyVector.com

Click Chart to Enlarge (Opens in Same Window)

 

AIRAC Cycle: 1501

AD – Airport Diagram
AIRPORT DIAGRAM
IAPs – Instrument Approach Procedures
RNAV (GPS) RWY 08 RNAV     
RNAV (GPS) RWY 26 RNAV   
VOR/DME OR TACAN RWY 08   
VOR/DME OR TACAN RWY 26   
VOR RWY 08   
NOTE: Special Take-Off Minimums/Departure Procedures apply   

 

 

SIG | TJIG – Fernando Luis Ribas Dominicci Airport

San Juan, Puerto RicoAirspace Class: Class D

TJIG 171845Z 10011KT 10SM FEW050 29/21 A2997

 

Flight Planner at SkyVector.com

Click Chart to Enlarge (Opens in Same Window)

 

AIRAC Cycle: 1501

AD – Airport Diagram
AIRPORT DIAGRAM
IAPs – Instrument Approach Procedures
RNAV (GPS) RWY 09 RNAV     

 

 

AXA | TQPF – Clayton J Lloyd International Airport

The Valley, AnguillaAirspace Class: Class D

TQPF 171800Z 09012KT 9999 FEW020 28/20 Q1015 NOSIG

 

Flight Planner at SkyVector.com

Click Chart to Enlarge (Opens in Same Window)

 

Chart Packet
AXA Chart Packet  

 

 

SBH | TFFJ – St. Barthélemy Airport

St.Jean, St. BarthélemyAirspace Class: Class E

TNCM 171900Z 09012KT 050V120 9999 FEW022 29/21 Q1014 NOSIG RMK A2996

 

Flight Planner at SkyVector.com

Click Chart to Enlarge (Opens in Same Window)

 

Chart Packet
SBH Chart Packet  

 

 

SFG | TFFG – Grand Case Airport

Grand Case, St. MartinAirspace Class: Class E

TNCM 171900Z 09012KT 050V120 9999 FEW022 29/21 Q1014 NOSIG RMK A2996

 

Flight Planner at SkyVector.com

Click Chart to Enlarge (Opens in Same Window)

 

Chart Packet
SFG Chart Packet  

 

 

PSE | TJPS – Mercedita Airport

Ponce, Puerto RicoAirspace Class: Class E

TJPS 310650Z 00000KT 8SM SCT020 BKN030 22/22 A3001

 

Flight Planner at SkyVector.com

Click Chart to Enlarge (Opens in Same Window) 

 

AIRAC Cycle: 1501

IAPs – Instrument Approach Procedures
RNAV (GPS) RWY 12 RNAV  
RNAV (GPS) RWY 30 RNAV  
VOR-A   
NOTE: Special Take-Off Minimums/Departure Procedures apply   

 

 

MAZ | TJMZ – Eugenio Maria de Hostos Airport

Mayaguez, Puerto RicoAirspace Class: Class E

TJMZ 101550Z 11009KT 10SM SCT050 33/24

 

Flight Planner at SkyVector.com

Click Chart to Enlarge (Opens in Same Window) 

 

AIRAC Cycle: 1501

AD – Airport Diagram
AIRPORT DIAGRAM  
IAPs – Instrument Approach Procedures
RNAV (GPS) RWY 09 RNAV   
VOR RWY 09   
NOTE: Special Alternate Minimums apply   
NOTE: Special Take-Off Minimums/Departure Procedures apply   

 

VQS | TJVQ – Antonio Rivera Rodriguez Airport

Isla de Vieques, Puerto RicoAirspace Class: Class G

TJNR 171853Z AUTO 11010KT 10SM -RA FEW025 BKN035 29/23 A2998 RMK AO2 SLP152 P0000 T02940233 $

 

Flight Planner at SkyVector.com

Click Chart to Enlarge (Opens in Same Window) 

 

AIRAC Cycle: 1501

SIDs – Standard Instrument Departures
VEDAS THREE (RNAV) RNAV     
NOTE: Special Take-Off Minimums/Departure Procedures apply   
IAPs – Instrument Approach Procedures
RNAV (GPS) RWY 09 RNAV